User: anonymous   Login
Location: Ladrillo (historical)
(32.8195°N, 117.2231°W)
Time: 19:13:36
(UTC+00:00)
Language:

Vanguard 2 Rocket - Orbit

View from above orbital plane
View from above orbital plane
View from above satellite
View from above satellite

Ground track
Ground track

The orbit data is extracted from the following two-line orbital elements,

1 00012U 59001B   21059.63412940  .00000103  00000-0  54875-4 0  9991
2 00012  32.9018 174.6077 1666015 342.8347  12.1852 11.44396194309335
Epoch (UTC): 28 February 2021 15:13:08
Eccentricity: 0.1666015
inclination: 32.9018°
perigee height: 554 km
apogee height: 3325 km
right ascension of ascending node: 174.6077°
argument of perigee: 342.8347°
revolutions per day: 11.44396194
mean anomaly at epoch: 12.1852°
orbit number at epoch: 30933

The dashed part of the orbit path shows where the satellite is in the earth's shadow,  

DLR